Powrót do katalogu

CZ-4 DEB

AktywnySSO
NORAD 20797·DEBRIS·🇨🇳 China

Wystrzelony Sep 3, 1990 z Taiyuan Satellite Launch Center

Loading…

Następne Przeloty (najbliższe 24 godziny)

TLE

ŚwieżeSource: Space-Track

Epoka: Sep 14, 2026, 05:13 UTC

1 20797U 90081G   26257.21791848  .00000491  00000-0  25909-3 0  9997
2 20797  98.8145 242.7520 0007219 234.3706 190.9757 14.18471200854326

Śledź CZ-4 DEB w czasie rzeczywistym z AllMySat

Download on the App Store